Weather History for Phoenix, AZ

Change the Weather History Date:

Tuesday, April 2, 2013

  Actual Average Record
Temperature  
Mean Temperature 72 °F 69 °F  
Max Temperature 85 °F 81 °F 98 °F (1943)
Min Temperature 58 °F 57 °F 37 °F (1917)
Degree Days  
Heating Degree Days 0 1  
Month to date heating degree days 0 2  
Since 1 July heating degree days 881 916  
Cooling Degree Days 7 5  
Month to date cooling degree days 16 10  
Year to date cooling degree days 204 114  
Growing Degree Days 20 (Base 50)    
Moisture  
Dew Point 26 °F    
Average Humidity 25    
Maximum Humidity 40    
Minimum Humidity 10    
Precipitation  
Precipitation 0.00 in 0.01 in 0.68 in (2004)
Month to date precipitation 0.00 0.03  
Year to date precipitation 2.55 2.85  
Snow  
Snow 0.00 in - - ()
Month to date snowfall 0.0  
Year to date snowfall 0.0  
Since 1 July snowfall 0.0  
Snow Depth 0.00 in    
Sea Level Pressure  
Sea Level Pressure 29.85 in    
Wind  
Wind Speed 8 mph (West)    
Max Wind Speed 21 mph    
Max Gust Speed 28 mph    
Visibility 10 miles    
Events      
T = Trace of Precipitation, MM = Missing Value Source: NWS Daily Summary

Daily Weather History Graph

Daily Weather History Graph

Search for Another Location

Airport:

Trip Planner

Search our weather history database for the weather conditions in past years. The results will help you decide how hot, cold, wet, or windy it might be!

Date:

Astronomy

Apr. 02, 2013 Rise Set
Actual Time 6:13 AM MST 6:49 PM MST
Civil Twilight 5:48 AM MST 7:14 PM MST
Nautical Twilight 5:19 AM MST 7:44 PM MST
Astronomical Twilight 4:49 AM MST 8:14 PM MST
Moon 12:45 AM MST (4/2) 11:20 AM MST (4/2)
Length of Visible Light 13h 25m
Length of Day
12h 35m
Waning Gibbous, 55% of the Moon is Illuminated
Apr 2
Waning Gibbous
Apr 2
Last Quarter
Apr 10
New
Apr 18
First Quarter
Apr 25
Full

Hourly Weather History & Observations

Time (MST) Temp. Dew Point Humidity Pressure Visibility Wind Dir Wind Speed Gust Speed Precip Events Conditions
12:51 AM 68.0 °F 30.2 °F 24% 29.88 in 10.0 mi West 10.4 mph - N/A   Mostly Cloudy
1:51 AM 64.0 °F 30.9 °F 29% 29.84 in 10.0 mi WSW 4.6 mph - N/A   Scattered Clouds
2:51 AM 68.0 °F 23.0 °F 18% 29.83 in 10.0 mi NW 9.2 mph - N/A   Scattered Clouds
3:51 AM 64.0 °F 26.1 °F 24% 29.83 in 10.0 mi NW 4.6 mph - N/A   Scattered Clouds
4:51 AM 63.0 °F 24.1 °F 23% 29.85 in 10.0 mi NW 4.6 mph - N/A   Scattered Clouds
5:51 AM 61.0 °F 25.0 °F 25% 29.86 in 10.0 mi Calm Calm - N/A   Partly Cloudy
6:51 AM 57.9 °F 33.1 °F 39% 29.88 in 10.0 mi East 4.6 mph - N/A   Clear
7:51 AM 62.1 °F 30.0 °F 30% 29.91 in 10.0 mi East 3.5 mph - N/A   Clear
8:51 AM 66.9 °F 27.0 °F 22% 29.92 in 10.0 mi North 3.5 mph - N/A   Partly Cloudy
9:51 AM 69.8 °F 26.6 °F 20% 29.95 in 10.0 mi WSW 4.6 mph - N/A   Partly Cloudy
10:51 AM 71.6 °F 26.6 °F 19% 29.94 in 10.0 mi West 4.6 mph - N/A   Scattered Clouds
11:51 AM 78.1 °F 28.0 °F 16% 29.89 in 10.0 mi Variable 6.9 mph - N/A   Scattered Clouds
12:51 PM 78.1 °F 25.0 °F 14% 29.86 in 10.0 mi Variable 5.8 mph - N/A   Scattered Clouds
1:51 PM 82.9 °F 25.0 °F 12% 29.82 in 10.0 mi SW 11.5 mph 16.1 mph N/A   Scattered Clouds
2:51 PM 82.0 °F 24.1 °F 12% 29.80 in 10.0 mi WNW 13.8 mph 20.7 mph N/A   Scattered Clouds
3:51 PM 82.9 °F 25.0 °F 12% 29.78 in 10.0 mi WSW 13.8 mph 25.3 mph N/A   Scattered Clouds
4:51 PM 82.0 °F 24.1 °F 12% 29.78 in 10.0 mi West 10.4 mph 27.6 mph N/A   Scattered Clouds
5:51 PM 82.9 °F 21.0 °F 10% 29.78 in 10.0 mi WNW 13.8 mph - N/A   Scattered Clouds
6:51 PM 82.0 °F 21.0 °F 10% 29.79 in 10.0 mi WNW 16.1 mph - N/A   Scattered Clouds
7:51 PM 78.1 °F 26.1 °F 15% 29.81 in 10.0 mi West 12.7 mph - N/A   Scattered Clouds
8:51 PM 75.9 °F 26.1 °F 16% 29.83 in 10.0 mi West 8.1 mph - N/A   Partly Cloudy
9:51 PM 75.0 °F 25.0 °F 16% 29.84 in 10.0 mi WSW 9.2 mph - N/A   Partly Cloudy
10:51 PM 72.0 °F 28.0 °F 20% 29.85 in 10.0 mi WSW 8.1 mph - N/A   Partly Cloudy
11:51 PM 71.1 °F 28.9 °F 21% 29.86 in 10.0 mi West 8.1 mph - N/A   Partly Cloudy